Year,Month,Day,Hour,Minute,Value (Times are PST for temperature in C)
2015,06,21,00,00,10.80
2015,06,21,00,01,10.70
2015,06,21,00,02,10.70
2015,06,21,00,03,10.70
2015,06,21,00,04,10.70
2015,06,21,00,05,10.70
2015,06,21,00,06,10.60
2015,06,21,00,07,10.60
2015,06,21,00,08,10.60
2015,06,21,00,09,10.50
2015,06,21,00,10,10.50
2015,06,21,00,11,10.50
2015,06,21,00,12,10.50
2015,06,21,00,13,10.50
2015,06,21,00,14,10.60
2015,06,21,00,15,10.60
2015,06,21,00,16,10.60
2015,06,21,00,17,10.60
2015,06,21,00,18,10.70
2015,06,21,00,19,10.70
2015,06,21,00,20,10.70
2015,06,21,00,21,10.70
2015,06,21,00,22,10.70
2015,06,21,00,23,10.70
2015,06,21,00,24,10.70
2015,06,21,00,25,10.80
2015,06,21,00,26,10.80
2015,06,21,00,27,10.80
2015,06,21,00,28,10.80
2015,06,21,00,29,10.80
2015,06,21,00,30,10.80
2015,06,21,00,31,10.80
2015,06,21,00,32,10.80
2015,06,21,00,33,10.80
2015,06,21,00,34,10.80
2015,06,21,00,35,10.80
2015,06,21,00,36,10.70
2015,06,21,00,37,10.70
2015,06,21,00,38,10.70
2015,06,21,00,39,10.70
2015,06,21,00,40,10.70
2015,06,21,00,41,10.60
2015,06,21,00,42,10.60
2015,06,21,00,43,10.50
2015,06,21,00,44,10.50
2015,06,21,00,45,10.50
2015,06,21,00,46,10.50
2015,06,21,00,47,10.40
2015,06,21,00,48,10.40
2015,06,21,00,49,10.40
2015,06,21,00,50,10.40
2015,06,21,00,51,10.40
2015,06,21,00,52,10.40
2015,06,21,00,53,10.40
2015,06,21,00,54,10.40
2015,06,21,00,55,10.40
2015,06,21,00,56,10.40
2015,06,21,00,57,10.40
2015,06,21,00,58,10.40
2015,06,21,00,59,10.40
2015,06,21,01,00,10.40
2015,06,21,01,01,10.30
2015,06,21,01,02,10.30
2015,06,21,01,03,10.30
2015,06,21,01,04,10.20
2015,06,21,01,05,10.20
2015,06,21,01,06,10.20
2015,06,21,01,07,10.20
2015,06,21,01,08,10.10
2015,06,21,01,09,10.10
2015,06,21,01,10,10.10
2015,06,21,01,11,10.10
2015,06,21,01,12,10.10
2015,06,21,01,13,10.10
2015,06,21,01,14,10.10
2015,06,21,01,15,10.10
2015,06,21,01,16,10.10
2015,06,21,01,17,10.10
2015,06,21,01,18,10.10
2015,06,21,01,19,10.10
2015,06,21,01,20,10.10
2015,06,21,01,21,10.10
2015,06,21,01,22,10.10
2015,06,21,01,23,10.10
2015,06,21,01,24,10.10
2015,06,21,01,25,10.10
2015,06,21,01,26,10.10
2015,06,21,01,27,10.10
2015,06,21,01,28,10.00
2015,06,21,01,29,10.00
2015,06,21,01,30,10.00
2015,06,21,01,31,9.90
2015,06,21,01,32,9.90
2015,06,21,01,33,9.90
2015,06,21,01,34,9.90
2015,06,21,01,35,9.90
2015,06,21,01,36,9.90
2015,06,21,01,37,9.90
2015,06,21,01,38,9.90
2015,06,21,01,39,9.90
2015,06,21,01,40,9.90
2015,06,21,01,41,9.90
2015,06,21,01,42,9.90
2015,06,21,01,43,9.90
2015,06,21,01,44,10.00
2015,06,21,01,45,10.00
2015,06,21,01,46,10.10
2015,06,21,01,47,10.10
2015,06,21,01,48,10.10
2015,06,21,01,49,10.10
2015,06,21,01,50,10.20
2015,06,21,01,51,10.20
2015,06,21,01,52,10.20
2015,06,21,01,53,10.20
2015,06,21,01,54,10.20
2015,06,21,01,55,10.20
2015,06,21,01,56,10.20
2015,06,21,01,57,10.10
2015,06,21,01,58,10.10
2015,06,21,01,59,10.10
2015,06,21,02,00,10.10
2015,06,21,02,01,10.00
2015,06,21,02,02,10.00
2015,06,21,02,03,9.90
2015,06,21,02,04,9.90
2015,06,21,02,05,9.90
2015,06,21,02,06,9.80
2015,06,21,02,07,9.80
2015,06,21,02,08,9.80
2015,06,21,02,09,9.80
2015,06,21,02,10,9.80
2015,06,21,02,11,9.70
2015,06,21,02,12,9.70
2015,06,21,02,13,9.70
2015,06,21,02,14,9.70
2015,06,21,02,15,9.70
2015,06,21,02,16,9.70
2015,06,21,02,17,9.70
2015,06,21,02,18,9.70
2015,06,21,02,19,9.60
2015,06,21,02,20,9.60
2015,06,21,02,21,9.60
2015,06,21,02,22,9.60
2015,06,21,02,23,9.60
2015,06,21,02,24,9.60
2015,06,21,02,25,9.60
2015,06,21,02,26,9.60
2015,06,21,02,27,9.60
2015,06,21,02,28,9.60
2015,06,21,02,29,9.60
2015,06,21,02,30,9.60
2015,06,21,02,31,9.50
2015,06,21,02,32,9.60
2015,06,21,02,33,9.60
2015,06,21,02,34,9.60
2015,06,21,02,35,9.50
2015,06,21,02,36,9.50
2015,06,21,02,37,9.50
2015,06,21,02,38,9.50
2015,06,21,02,39,9.40
2015,06,21,02,40,9.40
2015,06,21,02,41,9.40
2015,06,21,02,42,9.40
2015,06,21,02,43,9.30
2015,06,21,02,44,9.30
2015,06,21,02,45,9.30
2015,06,21,02,46,9.30
2015,06,21,02,47,9.30
2015,06,21,02,48,9.30
2015,06,21,02,49,9.20
2015,06,21,02,50,9.20
2015,06,21,02,51,9.20
2015,06,21,02,52,9.20
2015,06,21,02,53,9.20
2015,06,21,02,54,9.20
2015,06,21,02,55,9.20
2015,06,21,02,56,9.20
2015,06,21,02,57,9.10
2015,06,21,02,58,9.10
2015,06,21,02,59,9.10
2015,06,21,03,00,9.10
2015,06,21,03,01,9.10
2015,06,21,03,02,9.10
2015,06,21,03,03,9.00
2015,06,21,03,04,9.00
2015,06,21,03,05,9.00
2015,06,21,03,06,9.00
2015,06,21,03,07,9.00
2015,06,21,03,08,9.00
2015,06,21,03,09,8.90
2015,06,21,03,10,8.90
2015,06,21,03,11,8.90
2015,06,21,03,12,8.90
2015,06,21,03,13,8.90
2015,06,21,03,14,8.90
2015,06,21,03,15,8.90
2015,06,21,03,16,8.90
2015,06,21,03,17,8.90
2015,06,21,03,18,8.90
2015,06,21,03,19,8.90
2015,06,21,03,20,8.90
2015,06,21,03,21,8.90
2015,06,21,03,22,8.90
2015,06,21,03,23,8.90
2015,06,21,03,24,8.90
2015,06,21,03,25,8.90
2015,06,21,03,26,8.90
2015,06,21,03,27,8.90
2015,06,21,03,28,8.80
2015,06,21,03,29,8.80
2015,06,21,03,30,8.80
2015,06,21,03,31,8.80
2015,06,21,03,32,8.80
2015,06,21,03,33,8.80
2015,06,21,03,34,8.80
2015,06,21,03,35,8.80
2015,06,21,03,36,8.80
2015,06,21,03,37,8.80
2015,06,21,03,38,8.80
2015,06,21,03,39,8.80
2015,06,21,03,40,8.80
2015,06,21,03,41,8.80
2015,06,21,03,42,8.80
2015,06,21,03,43,8.80
2015,06,21,03,44,8.80
2015,06,21,03,45,8.70
2015,06,21,03,46,8.70
2015,06,21,03,47,8.70
2015,06,21,03,48,8.70
2015,06,21,03,49,8.70
2015,06,21,03,50,8.70
2015,06,21,03,51,8.70
2015,06,21,03,52,8.70
2015,06,21,03,53,8.60
2015,06,21,03,54,8.60
2015,06,21,03,55,8.60
2015,06,21,03,56,8.60
2015,06,21,03,57,8.60
2015,06,21,03,58,8.60
2015,06,21,03,59,8.60
2015,06,21,04,00,8.60
2015,06,21,04,01,8.50
2015,06,21,04,02,8.50
2015,06,21,04,03,8.50
2015,06,21,04,04,8.50
2015,06,21,04,05,8.40
2015,06,21,04,06,8.40
2015,06,21,04,07,8.40
2015,06,21,04,08,8.40
2015,06,21,04,09,8.40
2015,06,21,04,10,8.40
2015,06,21,04,11,8.40
2015,06,21,04,12,8.30
2015,06,21,04,13,8.30
2015,06,21,04,14,8.30
2015,06,21,04,15,8.30
2015,06,21,04,16,8.30
2015,06,21,04,17,8.30
2015,06,21,04,18,8.30
2015,06,21,04,19,8.30
2015,06,21,04,20,8.30
2015,06,21,04,21,8.30
2015,06,21,04,22,8.30
2015,06,21,04,23,8.20
2015,06,21,04,24,8.20
2015,06,21,04,25,8.20
2015,06,21,04,26,8.20
2015,06,21,04,27,8.20
2015,06,21,04,28,8.20
2015,06,21,04,29,8.20
2015,06,21,04,30,8.20
2015,06,21,04,31,8.20
2015,06,21,04,32,8.20
2015,06,21,04,33,8.30
2015,06,21,04,34,8.30
2015,06,21,04,35,8.30
2015,06,21,04,36,8.30
2015,06,21,04,37,8.30
2015,06,21,04,38,8.30
2015,06,21,04,39,8.30
2015,06,21,04,40,8.30
2015,06,21,04,41,8.30
2015,06,21,04,42,8.30
2015,06,21,04,43,8.30
2015,06,21,04,44,8.30
2015,06,21,04,45,8.30
2015,06,21,04,46,8.30
2015,06,21,04,47,8.30
2015,06,21,04,48,8.20
2015,06,21,04,49,8.20
2015,06,21,04,50,8.20
2015,06,21,04,51,8.20
2015,06,21,04,52,8.20
2015,06,21,04,53,8.20
2015,06,21,04,54,8.10
2015,06,21,04,55,8.10
2015,06,21,04,56,8.00
2015,06,21,04,57,8.00
2015,06,21,04,58,8.00
2015,06,21,04,59,8.00
2015,06,21,05,00,8.00
2015,06,21,05,01,8.00
2015,06,21,05,02,8.00
2015,06,21,05,03,8.00
2015,06,21,05,04,8.00
2015,06,21,05,05,8.00
2015,06,21,05,06,8.00
2015,06,21,05,07,8.00
2015,06,21,05,08,8.00
2015,06,21,05,09,8.00
2015,06,21,05,10,8.00
2015,06,21,05,11,8.00
2015,06,21,05,12,8.00
2015,06,21,05,13,8.00
2015,06,21,05,14,8.00
2015,06,21,05,15,8.00
2015,06,21,05,16,8.00
2015,06,21,05,17,8.00
2015,06,21,05,18,8.00
2015,06,21,05,19,8.00
2015,06,21,05,20,8.00
2015,06,21,05,21,8.00
2015,06,21,05,22,8.00
2015,06,21,05,23,8.00
2015,06,21,05,24,8.00
2015,06,21,05,25,8.00
2015,06,21,05,26,8.10
2015,06,21,05,27,8.10
2015,06,21,05,28,8.10
2015,06,21,05,29,8.10
2015,06,21,05,30,8.10
2015,06,21,05,31,8.10
2015,06,21,05,32,8.10
2015,06,21,05,33,8.10
2015,06,21,05,34,8.20
2015,06,21,05,35,8.20
2015,06,21,05,36,8.20
2015,06,21,05,37,8.20
2015,06,21,05,38,8.20
2015,06,21,05,39,8.20
2015,06,21,05,40,8.20
2015,06,21,05,41,8.20
2015,06,21,05,42,8.20
2015,06,21,05,43,8.20
2015,06,21,05,44,8.20
2015,06,21,05,45,8.20
2015,06,21,05,46,8.20
2015,06,21,05,47,8.20
2015,06,21,05,48,8.20
2015,06,21,05,49,8.20
2015,06,21,05,50,8.20
2015,06,21,05,51,8.20
2015,06,21,05,52,8.20
2015,06,21,05,53,8.20
2015,06,21,05,54,8.20
2015,06,21,05,55,8.20
2015,06,21,05,56,8.20
2015,06,21,05,57,8.20
2015,06,21,05,58,8.20
2015,06,21,05,59,8.20
2015,06,21,06,00,8.20
2015,06,21,06,01,8.20
2015,06,21,06,02,8.30
2015,06,21,06,03,8.30
2015,06,21,06,04,8.30
2015,06,21,06,05,8.30
2015,06,21,06,06,8.40
2015,06,21,06,07,8.40
2015,06,21,06,08,8.40
2015,06,21,06,09,8.40
2015,06,21,06,10,8.50
2015,06,21,06,11,8.50
2015,06,21,06,12,8.60
2015,06,21,06,13,8.60
2015,06,21,06,14,8.70
2015,06,21,06,15,8.70
2015,06,21,06,16,8.80
2015,06,21,06,17,8.80
2015,06,21,06,18,8.80
2015,06,21,06,19,8.90
2015,06,21,06,20,8.90
2015,06,21,06,21,9.00
2015,06,21,06,22,9.00
2015,06,21,06,23,9.10
2015,06,21,06,24,9.10
2015,06,21,06,25,9.20
2015,06,21,06,26,9.20
2015,06,21,06,27,9.30
2015,06,21,06,28,9.30
2015,06,21,06,29,9.40
2015,06,21,06,30,9.40
2015,06,21,06,31,9.40
2015,06,21,06,32,9.50
2015,06,21,06,33,9.50
2015,06,21,06,34,9.60
2015,06,21,06,35,9.60
2015,06,21,06,36,9.70
2015,06,21,06,37,9.80
2015,06,21,06,38,9.80
2015,06,21,06,39,9.80
2015,06,21,06,40,9.90
2015,06,21,06,41,9.90
2015,06,21,06,42,10.00
2015,06,21,06,43,10.10
2015,06,21,06,44,10.10
2015,06,21,06,45,10.20
2015,06,21,06,46,10.20
2015,06,21,06,47,10.30
2015,06,21,06,48,10.30
2015,06,21,06,49,10.40
2015,06,21,06,50,10.50
2015,06,21,06,51,10.60
2015,06,21,06,52,10.70
2015,06,21,06,53,10.70
2015,06,21,06,54,10.80
2015,06,21,06,55,10.80
2015,06,21,06,56,10.90
2015,06,21,06,57,10.90
2015,06,21,06,58,11.00
2015,06,21,06,59,11.10
2015,06,21,07,00,11.20
2015,06,21,07,01,11.30
2015,06,21,07,02,11.30
2015,06,21,07,03,11.40
2015,06,21,07,04,11.50
2015,06,21,07,05,11.60
2015,06,21,07,06,11.70
2015,06,21,07,07,11.80
2015,06,21,07,08,11.90
2015,06,21,07,09,12.00
2015,06,21,07,10,12.10
2015,06,21,07,11,12.10
2015,06,21,07,12,12.20
2015,06,21,07,13,12.30
2015,06,21,07,14,12.30
2015,06,21,07,15,12.40
2015,06,21,07,16,12.50
2015,06,21,07,17,12.50
2015,06,21,07,18,12.60
2015,06,21,07,19,12.70
2015,06,21,07,20,12.80
2015,06,21,07,21,12.90
2015,06,21,07,22,12.90
2015,06,21,07,23,13.00
2015,06,21,07,24,13.10
2015,06,21,07,25,13.10
2015,06,21,07,26,13.20
2015,06,21,07,27,13.20
2015,06,21,07,28,13.20
2015,06,21,07,29,13.30
2015,06,21,07,30,13.30
2015,06,21,07,31,13.40
2015,06,21,07,32,13.40
2015,06,21,07,33,13.40
2015,06,21,07,34,13.50
2015,06,21,07,35,13.60
2015,06,21,07,36,13.60
2015,06,21,07,37,13.60
2015,06,21,07,38,13.70
2015,06,21,07,39,13.70
2015,06,21,07,40,13.70
2015,06,21,07,41,13.80
2015,06,21,07,42,13.80
2015,06,21,07,43,13.90
2015,06,21,07,44,13.90
2015,06,21,07,45,14.00
2015,06,21,07,46,14.10
2015,06,21,07,47,14.10
2015,06,21,07,48,14.20
2015,06,21,07,49,14.20
2015,06,21,07,50,14.30
2015,06,21,07,51,14.40
2015,06,21,07,52,14.50
2015,06,21,07,53,14.60
2015,06,21,07,54,14.60
2015,06,21,07,55,14.70
2015,06,21,07,56,14.80
2015,06,21,07,57,14.80
2015,06,21,07,58,14.90
2015,06,21,07,59,15.00
2015,06,21,08,00,15.00
2015,06,21,08,01,15.10
2015,06,21,08,02,15.10
2015,06,21,08,03,15.20
2015,06,21,08,04,15.20
2015,06,21,08,05,15.30
2015,06,21,08,06,15.30
2015,06,21,08,07,15.40
2015,06,21,08,08,15.40
2015,06,21,08,09,15.40
2015,06,21,08,10,15.50
2015,06,21,08,11,15.50
2015,06,21,08,12,15.60
2015,06,21,08,13,15.60
2015,06,21,08,14,15.70
2015,06,21,08,15,15.80
2015,06,21,08,16,15.80
2015,06,21,08,17,15.90
2015,06,21,08,18,16.00
2015,06,21,08,19,16.00
2015,06,21,08,20,16.10
2015,06,21,08,21,16.10
2015,06,21,08,22,16.10
2015,06,21,08,23,16.00
2015,06,21,08,24,15.90
2015,06,21,08,25,15.90
2015,06,21,08,26,15.90
2015,06,21,08,27,15.90
2015,06,21,08,28,15.90
2015,06,21,08,29,16.00
2015,06,21,08,30,16.10
2015,06,21,08,31,16.10
2015,06,21,08,32,16.10
2015,06,21,08,33,16.10
2015,06,21,08,34,16.10
2015,06,21,08,35,16.10
2015,06,21,08,36,16.20
2015,06,21,08,37,16.30
2015,06,21,08,38,16.30
2015,06,21,08,39,16.40
2015,06,21,08,40,16.50
2015,06,21,08,41,16.50
2015,06,21,08,42,16.60
2015,06,21,08,43,16.60
2015,06,21,08,44,16.70
2015,06,21,08,45,16.70
2015,06,21,08,46,16.80
2015,06,21,08,47,16.80
2015,06,21,08,48,16.80
2015,06,21,08,49,16.90
2015,06,21,08,50,16.90
2015,06,21,08,51,16.90
2015,06,21,08,52,17.00
2015,06,21,08,53,17.00
2015,06,21,08,54,17.00
2015,06,21,08,55,17.00
2015,06,21,08,56,17.00
2015,06,21,08,57,17.00
2015,06,21,08,58,17.00
2015,06,21,08,59,17.10
2015,06,21,09,00,17.10
2015,06,21,09,01,17.10
2015,06,21,09,02,17.10
2015,06,21,09,03,17.20
2015,06,21,09,04,17.20
2015,06,21,09,05,17.20
2015,06,21,09,06,17.30
2015,06,21,09,07,17.30
2015,06,21,09,08,17.30
2015,06,21,09,09,17.30
2015,06,21,09,10,17.30
2015,06,21,09,11,17.30
2015,06,21,09,12,17.30
2015,06,21,09,13,17.30
2015,06,21,09,14,17.30
2015,06,21,09,15,17.30
2015,06,21,09,16,17.30
2015,06,21,09,17,17.30
2015,06,21,09,18,17.30
2015,06,21,09,19,17.30
2015,06,21,09,20,17.20
2015,06,21,09,21,17.20
2015,06,21,09,22,17.20
2015,06,21,09,23,17.20
2015,06,21,09,24,17.20
2015,06,21,09,25,17.20
2015,06,21,09,26,17.20
2015,06,21,09,27,17.20
2015,06,21,09,28,17.20
2015,06,21,09,29,17.30
2015,06,21,09,30,17.30
2015,06,21,09,31,17.30
2015,06,21,09,32,17.30
2015,06,21,09,33,17.40
2015,06,21,09,34,17.40
2015,06,21,09,35,17.30
2015,06,21,09,36,17.30
2015,06,21,09,37,17.30
2015,06,21,09,38,17.30
2015,06,21,09,39,17.30
2015,06,21,09,40,17.40
2015,06,21,09,41,17.40
2015,06,21,09,42,17.50
2015,06,21,09,43,17.50
2015,06,21,09,44,17.60
2015,06,21,09,45,17.70
2015,06,21,09,46,17.80
2015,06,21,09,47,17.80
2015,06,21,09,48,17.80
2015,06,21,09,49,17.80
2015,06,21,09,50,17.80
2015,06,21,09,51,17.80
2015,06,21,09,52,17.80
2015,06,21,09,53,17.90
2015,06,21,09,54,17.90
2015,06,21,09,55,18.00
2015,06,21,09,56,18.00
2015,06,21,09,57,18.10
2015,06,21,09,58,18.10
2015,06,21,09,59,18.20
2015,06,21,10,00,18.30
2015,06,21,10,01,18.30
2015,06,21,10,02,18.30
2015,06,21,10,03,18.40
2015,06,21,10,04,18.50
2015,06,21,10,05,18.60
2015,06,21,10,06,18.60
2015,06,21,10,07,18.60
2015,06,21,10,08,18.70
2015,06,21,10,09,18.70
2015,06,21,10,10,18.70
2015,06,21,10,11,18.70
2015,06,21,10,12,18.70
2015,06,21,10,13,18.80
2015,06,21,10,14,18.80
2015,06,21,10,15,18.70
2015,06,21,10,16,18.70
2015,06,21,10,17,18.70
2015,06,21,10,18,18.70
2015,06,21,10,19,18.60
2015,06,21,10,20,18.60
2015,06,21,10,21,18.50
2015,06,21,10,22,18.50
2015,06,21,10,23,18.40
2015,06,21,10,24,18.30
2015,06,21,10,25,18.20
2015,06,21,10,26,18.00
2015,06,21,10,27,17.80
2015,06,21,10,28,17.70
2015,06,21,10,29,17.70
2015,06,21,10,30,17.70
2015,06,21,10,31,17.70
2015,06,21,10,32,17.70
2015,06,21,10,33,17.80
2015,06,21,10,34,17.90
2015,06,21,10,35,17.90
2015,06,21,10,36,18.00
2015,06,21,10,37,18.00
2015,06,21,10,38,18.00
2015,06,21,10,39,18.00
2015,06,21,10,40,18.00
2015,06,21,10,41,18.10
2015,06,21,10,42,18.00
2015,06,21,10,43,17.90
2015,06,21,10,44,17.90
2015,06,21,10,45,18.00
2015,06,21,10,46,18.00
2015,06,21,10,47,18.10
2015,06,21,10,48,18.10
2015,06,21,10,49,18.10
2015,06,21,10,50,18.20
2015,06,21,10,51,18.20
2015,06,21,10,52,18.20
2015,06,21,10,53,18.20
2015,06,21,10,54,18.20
2015,06,21,10,55,18.20
2015,06,21,10,56,18.20
2015,06,21,10,57,18.20
2015,06,21,10,58,18.30
2015,06,21,10,59,18.30
2015,06,21,11,00,18.40
2015,06,21,11,01,18.40
2015,06,21,11,02,18.50
2015,06,21,11,03,18.50
2015,06,21,11,04,18.40
2015,06,21,11,05,18.30
2015,06,21,11,06,18.20
2015,06,21,11,07,18.20
2015,06,21,11,08,18.20
2015,06,21,11,09,18.20
2015,06,21,11,10,18.20
2015,06,21,11,11,18.30
2015,06,21,11,12,18.30
2015,06,21,11,13,18.30
2015,06,21,11,14,18.30
2015,06,21,11,15,18.40
2015,06,21,11,16,18.40
2015,06,21,11,17,18.50
2015,06,21,11,18,18.50
2015,06,21,11,19,18.40
2015,06,21,11,20,18.40
2015,06,21,11,21,18.30
2015,06,21,11,22,18.30
2015,06,21,11,23,18.30
2015,06,21,11,24,18.20
2015,06,21,11,25,18.20
2015,06,21,11,26,18.20
2015,06,21,11,27,18.20
2015,06,21,11,28,18.20
2015,06,21,11,29,18.20
2015,06,21,11,30,18.20
2015,06,21,11,31,18.20
2015,06,21,11,32,18.20
2015,06,21,11,33,18.20
2015,06,21,11,34,18.20
2015,06,21,11,35,18.20
2015,06,21,11,36,18.20
2015,06,21,11,37,18.20
2015,06,21,11,38,18.20
2015,06,21,11,39,18.30
2015,06,21,11,40,18.30
2015,06,21,11,41,18.40
2015,06,21,11,42,18.40
2015,06,21,11,43,18.50
2015,06,21,11,44,18.50
2015,06,21,11,45,18.60
2015,06,21,11,46,18.60
2015,06,21,11,47,18.70
2015,06,21,11,48,18.70
2015,06,21,11,49,18.70
2015,06,21,11,50,18.70
2015,06,21,11,51,18.80
2015,06,21,11,52,18.90
2015,06,21,11,53,18.90
2015,06,21,11,54,18.90
2015,06,21,11,55,19.00
2015,06,21,11,56,19.10
2015,06,21,11,57,19.00
2015,06,21,11,58,18.90
2015,06,21,11,59,18.80
2015,06,21,12,00,18.70
2015,06,21,12,01,18.80
2015,06,21,12,02,18.80
2015,06,21,12,03,18.80
2015,06,21,12,04,18.90
2015,06,21,12,05,19.00
2015,06,21,12,06,19.00
2015,06,21,12,07,19.10
2015,06,21,12,08,19.10
2015,06,21,12,09,19.20
2015,06,21,12,10,19.10
2015,06,21,12,11,19.20
2015,06,21,12,12,19.20
2015,06,21,12,13,19.20
2015,06,21,12,14,19.20
2015,06,21,12,15,19.20
2015,06,21,12,16,19.30
2015,06,21,12,17,19.30
2015,06,21,12,18,19.30
2015,06,21,12,19,19.30
2015,06,21,12,20,19.30
2015,06,21,12,21,19.40
2015,06,21,12,22,19.40
2015,06,21,12,23,19.40
2015,06,21,12,24,19.40
2015,06,21,12,25,19.40
2015,06,21,12,26,19.30
2015,06,21,12,27,19.30
2015,06,21,12,28,19.30
2015,06,21,12,29,19.30
2015,06,21,12,30,19.30
2015,06,21,12,31,19.30
2015,06,21,12,32,19.40
2015,06,21,12,33,19.50
2015,06,21,12,34,19.60
2015,06,21,12,35,19.60
2015,06,21,12,36,19.70
2015,06,21,12,37,19.70
2015,06,21,12,38,19.70
2015,06,21,12,39,19.70
2015,06,21,12,40,19.80
2015,06,21,12,41,19.80
2015,06,21,12,42,19.80
2015,06,21,12,43,19.80
2015,06,21,12,44,19.90
2015,06,21,12,45,19.90
2015,06,21,12,46,19.80
2015,06,21,12,47,19.80
2015,06,21,12,48,19.80
2015,06,21,12,49,19.80
2015,06,21,12,50,19.90
2015,06,21,12,51,19.90
2015,06,21,12,52,19.90
2015,06,21,12,53,19.90
2015,06,21,12,54,19.90
2015,06,21,12,55,19.90
2015,06,21,12,56,19.80
2015,06,21,12,57,19.90
2015,06,21,12,58,19.90
2015,06,21,12,59,19.90
2015,06,21,13,00,19.90
2015,06,21,13,01,19.90
2015,06,21,13,02,19.90
2015,06,21,13,03,19.90
2015,06,21,13,04,19.90
2015,06,21,13,05,19.90
2015,06,21,13,06,19.80
2015,06,21,13,07,19.60
2015,06,21,13,08,19.60
2015,06,21,13,09,19.60
2015,06,21,13,10,19.50
2015,06,21,13,11,19.60
2015,06,21,13,12,19.60
2015,06,21,13,13,19.60
2015,06,21,13,14,19.60
2015,06,21,13,15,19.70
2015,06,21,13,16,19.70
2015,06,21,13,17,19.80
2015,06,21,13,18,19.80
2015,06,21,13,19,19.80
2015,06,21,13,20,19.80
2015,06,21,13,21,19.80
2015,06,21,13,22,19.60
2015,06,21,13,23,19.40
2015,06,21,13,24,19.30
2015,06,21,13,25,19.20
2015,06,21,13,26,19.10
2015,06,21,13,27,19.10
2015,06,21,13,28,19.10
2015,06,21,13,29,19.10
2015,06,21,13,30,19.10
2015,06,21,13,31,19.10
2015,06,21,13,32,19.10
2015,06,21,13,33,19.10
2015,06,21,13,34,19.20
2015,06,21,13,35,19.30
2015,06,21,13,36,19.30
2015,06,21,13,37,19.30
2015,06,21,13,38,19.30
2015,06,21,13,39,19.30
2015,06,21,13,40,19.40
2015,06,21,13,41,19.40
2015,06,21,13,42,19.50
2015,06,21,13,43,19.60
2015,06,21,13,44,19.70
2015,06,21,13,45,19.80
2015,06,21,13,46,19.80
2015,06,21,13,47,19.80
2015,06,21,13,48,19.80
2015,06,21,13,49,19.80
2015,06,21,13,50,19.90
2015,06,21,13,51,19.90
2015,06,21,13,52,20.00
2015,06,21,13,53,20.10
2015,06,21,13,54,20.10
2015,06,21,13,55,20.10
2015,06,21,13,56,20.10
2015,06,21,13,57,20.00
2015,06,21,13,58,20.00
2015,06,21,13,59,20.00
2015,06,21,14,00,20.10
2015,06,21,14,01,20.20
2015,06,21,14,02,20.30
2015,06,21,14,03,20.40
2015,06,21,14,04,20.60
2015,06,21,14,05,20.70
2015,06,21,14,06,20.80
2015,06,21,14,07,20.90
2015,06,21,14,08,21.00
2015,06,21,14,09,21.00
2015,06,21,14,10,21.00
2015,06,21,14,11,21.00
2015,06,21,14,12,21.00
2015,06,21,14,13,20.90
2015,06,21,14,14,20.80
2015,06,21,14,15,20.80
2015,06,21,14,16,20.70
2015,06,21,14,17,20.70
2015,06,21,14,18,20.70
2015,06,21,14,19,20.70
2015,06,21,14,20,20.70
2015,06,21,14,21,20.70
2015,06,21,14,22,20.70
2015,06,21,14,23,20.70
2015,06,21,14,24,20.80
2015,06,21,14,25,20.80
2015,06,21,14,26,20.90
2015,06,21,14,27,20.90
2015,06,21,14,28,21.00
2015,06,21,14,29,21.00
2015,06,21,14,30,21.00
2015,06,21,14,31,20.90
2015,06,21,14,32,20.90
2015,06,21,14,33,20.90
2015,06,21,14,34,20.90
2015,06,21,14,35,20.80
2015,06,21,14,36,20.80
2015,06,21,14,37,20.90
2015,06,21,14,38,20.90
2015,06,21,14,39,20.90
2015,06,21,14,40,20.90
2015,06,21,14,41,20.90
2015,06,21,14,42,20.90
2015,06,21,14,43,21.00
2015,06,21,14,44,21.00
2015,06,21,14,45,21.10
2015,06,21,14,46,21.10
2015,06,21,14,47,21.20
2015,06,21,14,48,21.30
2015,06,21,14,49,21.30
2015,06,21,14,50,21.40
2015,06,21,14,51,21.40
2015,06,21,14,52,21.40
2015,06,21,14,53,21.40
2015,06,21,14,54,21.40
2015,06,21,14,55,21.30
2015,06,21,14,56,21.40
2015,06,21,14,57,21.40
2015,06,21,14,58,21.50
2015,06,21,14,59,21.70
2015,06,21,15,00,21.80
2015,06,21,15,01,21.90
2015,06,21,15,02,21.90
2015,06,21,15,03,22.00
2015,06,21,15,04,22.00
2015,06,21,15,05,22.00
2015,06,21,15,06,22.10
2015,06,21,15,07,22.10
2015,06,21,15,08,22.10
2015,06,21,15,09,22.10
2015,06,21,15,10,21.90
2015,06,21,15,11,21.70
2015,06,21,15,12,21.60
2015,06,21,15,13,21.50
2015,06,21,15,14,21.40
2015,06,21,15,15,21.40
2015,06,21,15,16,21.40
2015,06,21,15,17,21.40
2015,06,21,15,18,21.40
2015,06,21,15,19,21.50
2015,06,21,15,20,21.60
2015,06,21,15,21,21.60
2015,06,21,15,22,21.60
2015,06,21,15,23,21.70
2015,06,21,15,24,21.70
2015,06,21,15,25,21.80
2015,06,21,15,26,21.90
2015,06,21,15,27,21.90
2015,06,21,15,28,22.00
2015,06,21,15,29,22.10
2015,06,21,15,30,22.20
2015,06,21,15,31,22.30
2015,06,21,15,32,22.40
2015,06,21,15,33,22.50
2015,06,21,15,34,22.60
2015,06,21,15,35,22.60
2015,06,21,15,36,22.60
2015,06,21,15,37,22.50
2015,06,21,15,38,22.40
2015,06,21,15,39,22.30
2015,06,21,15,40,22.30
2015,06,21,15,41,22.30
2015,06,21,15,42,22.30
2015,06,21,15,43,22.30
2015,06,21,15,44,22.40
2015,06,21,15,45,22.40
2015,06,21,15,46,22.50
2015,06,21,15,47,22.60
2015,06,21,15,48,22.60
2015,06,21,15,49,22.60
2015,06,21,15,50,22.50
2015,06,21,15,51,22.40
2015,06,21,15,52,22.30
2015,06,21,15,53,22.30
2015,06,21,15,54,22.30
2015,06,21,15,55,22.30
2015,06,21,15,56,22.30
2015,06,21,15,57,22.30
2015,06,21,15,58,22.30
2015,06,21,15,59,22.20
2015,06,21,16,00,22.20
2015,06,21,16,01,22.20
2015,06,21,16,02,22.20
2015,06,21,16,03,22.20
2015,06,21,16,04,22.10
2015,06,21,16,05,22.10
2015,06,21,16,06,22.10
2015,06,21,16,07,22.10
2015,06,21,16,08,22.10
2015,06,21,16,09,22.20
2015,06,21,16,10,22.30
2015,06,21,16,11,22.40
2015,06,21,16,12,22.50
2015,06,21,16,13,22.60
2015,06,21,16,14,22.70
2015,06,21,16,15,22.80
2015,06,21,16,16,22.80
2015,06,21,16,17,22.80
2015,06,21,16,18,22.80
2015,06,21,16,19,22.80
2015,06,21,16,20,22.80
2015,06,21,16,21,22.90
2015,06,21,16,22,22.90
2015,06,21,16,23,22.90
2015,06,21,16,24,23.00
2015,06,21,16,25,23.10
2015,06,21,16,26,23.10
2015,06,21,16,27,23.10
2015,06,21,16,28,23.10
2015,06,21,16,29,23.20
2015,06,21,16,30,23.20
2015,06,21,16,31,23.30
2015,06,21,16,32,23.30
2015,06,21,16,33,23.30
2015,06,21,16,34,23.30
2015,06,21,16,35,23.40
2015,06,21,16,36,23.40
2015,06,21,16,37,23.50
2015,06,21,16,38,23.50
2015,06,21,16,39,23.50
2015,06,21,16,40,23.50
2015,06,21,16,41,23.60
2015,06,21,16,42,23.60
2015,06,21,16,43,23.60
2015,06,21,16,44,23.60
2015,06,21,16,45,23.60
2015,06,21,16,46,23.60
2015,06,21,16,47,23.60
2015,06,21,16,48,23.60
2015,06,21,16,49,23.60
2015,06,21,16,50,23.50
2015,06,21,16,51,23.50
2015,06,21,16,52,23.40
2015,06,21,16,53,23.50
2015,06,21,16,54,23.50
2015,06,21,16,55,23.50
2015,06,21,16,56,23.50
2015,06,21,16,57,23.60
2015,06,21,16,58,23.70
2015,06,21,16,59,23.70
2015,06,21,17,00,23.70
2015,06,21,17,01,23.80
2015,06,21,17,02,23.90
2015,06,21,17,03,23.90
2015,06,21,17,04,24.00
2015,06,21,17,05,24.00
2015,06,21,17,06,24.10
2015,06,21,17,07,24.10
2015,06,21,17,08,24.10
2015,06,21,17,09,24.10
2015,06,21,17,10,24.10
2015,06,21,17,11,24.20
2015,06,21,17,12,24.20
2015,06,21,17,13,24.20
2015,06,21,17,14,24.10
2015,06,21,17,15,24.10
2015,06,21,17,16,24.10
2015,06,21,17,17,24.10
2015,06,21,17,18,24.10
2015,06,21,17,19,24.10
2015,06,21,17,20,24.10
2015,06,21,17,21,24.10
2015,06,21,17,22,24.00
2015,06,21,17,23,23.90
2015,06,21,17,24,23.90
2015,06,21,17,25,23.80
2015,06,21,17,26,23.80
2015,06,21,17,27,23.70
2015,06,21,17,28,23.70
2015,06,21,17,29,23.70
2015,06,21,17,30,23.60
2015,06,21,17,31,23.60
2015,06,21,17,32,23.50